EW8473 Weather Reports


Display with metric or nautical units.
time (UTC)temp
F
wind
direction
speed
MPH
gust
MPH
rain 1hr
in
rain 24hr
in
rain mn
in
humidity
%
barometer
mb
20260510153042 76 28 6.0 10.0 0.00 1.20 0.01 1 1016.8
20260510152533 76 74 6.0 9.0 0.00 1.20 0.01 1 1016.9
20260510152031 76 123 2.0 9.0 0.00 1.20 0.01 1 1017.0
20260510151535 75 74 4.0 10.0 0.00 1.20 0.01 1 1016.9
20260510151030 74 95 4.0 10.0 0.00 1.20 0.01 1 1016.9
20260510150527 74 73 5.0 11.0 0.00 1.20 0.01 1 1016.9
20260510150026 74 82 6.0 11.0 0.00 1.20 0.01 1 1016.9
20260510145525 73 88 5.0 11.0 0.00 1.33 0.01 1 1016.8
20260510145023 73 77 7.0 11.0 0.00 1.33 0.01 1 1016.9
20260510144521 73 107 6.0 10.0 0.00 1.33 0.01 1 1017.0
20260510144021 73 58 5.0 10.0 0.00 1.33 0.01 1 1017.0
20260510143517 72 69 5.0 11.0 0.00 1.33 0.01 1 1016.8
20260510143020 72 63 5.0 12.0 0.00 1.33 0.01 1 1016.7
20260510142517 72 53 6.0 12.0 0.00 1.33 0.01 1 1016.7
20260510142014 72 82 5.0 11.0 0.00 1.33 0.01 1 1016.7
20260510141512 71 61 5.0 10.0 0.00 1.33 0.01 1 1016.7
20260510141011 71 85 5.0 9.0 0.00 1.33 0.01 1 1016.7
20260510140509 71 92 4.0 9.0 0.00 1.33 0.01 1 1016.7
20260510140009 71 75 4.0 10.0 0.00 1.33 0.01 1 1016.6
20260510135506 70 101 6.0 12.0 0.00 1.72 0.01 1 1016.6
20260510135005 70 51 4.0 12.0 0.00 1.72 0.01 1 1016.7
20260510134504 70 71 3.0 8.0 0.00 1.72 0.01 1 1016.7
20260510134001 70 67 1.0 7.0 0.00 1.72 0.01 1 1016.8
20260510133605 70 74 4.0 7.0 0.00 1.72 0.01 1 1016.8
20260510133100 70 82 3.0 5.0 0.00 1.72 0.01 1 1016.8
20260510132557 70 62 3.0 7.0 0.00 1.72 0.01 1 1016.6
20260510132056 70 63 3.0 7.0 0.00 1.72 0.01 1 1016.6
20260510131555 69 64 2.0 7.0 0.00 1.72 0.01 1 1016.4
20260510131053 70 62 2.0 7.0 0.00 1.72 0.01 1 1016.4
20260510130551 69 83 1.0 7.0 0.00 1.72 0.01 1 1016.4
20260510130051 69 81 1.0 6.0 0.00 1.72 0.01 1 1016.1
20260510125548 69 89 3.0 7.0 0.00 1.72 0.01 1 1016.0
20260510125047 69 78 3.0 8.0 0.00 1.72 0.01 1 1015.9
20260510124558 69 63 3.0 8.0 0.00 1.72 0.01 1 1015.7
20260510124045 69 80 1.0 5.0 0.00 1.72 0.01 1 1015.7
20260510123543 69 72 1.0 5.0 0.00 1.72 0.01 1 1015.7
20260510123041 69 98 2.0 7.0 0.00 1.72 0.01 1 1015.6
20260510122538 68 95 3.0 7.0 0.00 1.72 0.01 1 1015.5
20260510122038 68 87 1.0 7.0 0.00 1.72 0.01 1 1015.5
20260510121540 68 80 3.0 8.0 0.00 1.72 0.01 1 1015.5
20260510121035 68 84 2.0 8.0 0.00 1.72 0.01 1 1015.4
20260510120533 68 83 2.0 7.0 0.00 1.72 0.01 1 1015.3
20260510120033 68 92 2.0 7.0 0.00 1.72 0.01 1 1015.3
20260510115530 68 111 2.0 7.0 0.00 1.72 0.01 1 1015.2
20260510115029 68 121 2.0 6.0 0.00 1.72 0.01 1 1015.1
20260510114528 68 103 2.0 7.0 0.00 1.72 0.01 1 1015.0
20260510114026 68 93 3.0 7.0 0.00 1.72 0.01 1 1015.1
20260510113525 68 79 3.0 7.0 0.00 1.72 0.01 1 1015.0
20260510113024 68 92 1.0 6.0 0.00 1.72 0.01 1 1014.9
20260510112522 67 71 0.0 7.0 0.00 1.72 0.01 1 1014.8
20260510112021 67 100 4.0 7.0 0.00 1.72 0.01 1 1014.6
20260510111522 67 87 1.0 7.0 0.00 1.72 0.01 1 1014.6
20260510111018 67 103 2.0 7.0 0.00 1.72 0.01 1 1014.5
20260510110516 67 109 4.0 7.0 0.00 1.72 0.01 1 1014.4
20260510110032 67 88 3.0 8.0 0.00 1.72 0.01 1 1014.3
20260510105513 67 119 2.0 8.0 0.00 1.72 0.01 1 1014.3
20260510105012 67 95 1.0 4.0 0.00 1.72 0.01 1 1014.3
20260510104511 67 95 0.0 4.0 0.00 1.72 0.01 1 1014.2
20260510104012 67 121 2.0 4.0 0.00 1.72 0.01 1 1014.1
20260510103508 67 105 1.0 4.0 0.00 1.72 0.01 1 1014.0
20260510103006 67 98 1.0 4.0 0.00 1.72 0.01 1 1013.9
20260510102505 67 105 0.0 0.0 0.00 1.72 0.01 1 1013.8
20260510102005 67 105 0.0 0.0 0.00 1.72 0.01 1 1013.8
20260510101501 67 115 0.0 0.0 0.00 1.72 0.01 1 1013.7
20260510101100 67 115 0.0 4.0 0.00 1.72 0.01 1 1013.6
20260510100559 66 115 1.0 4.0 0.00 1.72 0.01 1 1013.5
20260510095555 66 96 0.0 0.0 0.00 1.72 0.01 1 1013.5
20260510095056 66 96 0.0 0.0 0.00 1.72 0.01 1 1013.4
20260510094554 66 96 0.0 0.0 0.00 1.72 0.01 1 1013.4
20260510094052 66 96 0.0 0.0 0.00 1.72 0.01 1 1013.4
20260510093550 66 96 0.0 0.0 0.00 1.72 0.01 1 1013.4
20260510093053 66 96 0.0 0.0 0.00 1.72 0.01 1 1013.3
20260510092547 67 96 0.0 0.0 0.00 1.72 0.01 1 1013.3
20260510092046 67 96 0.0 0.0 0.00 1.72 0.01 1 1013.3
20260510091544 67 96 0.0 3.0 0.00 1.72 0.01 1 1013.3
20260510091043 67 96 1.0 3.0 0.00 1.72 0.01 1 1013.3
20260510090545 67 96 0.0 6.0 0.01 1.72 0.01 1 1013.2
20260510090040 67 92 2.0 6.0 0.01 1.72 0.01 1 1013.2
20260510085538 67 63 2.0 5.0 0.01 1.72 0.01 1 1013.1
20260510085042 67 66 3.0 5.0 0.01 1.72 0.01 1 1013.1
20260510084537 67 63 2.0 6.0 0.01 1.72 0.01 1 1013.2
20260510084034 67 44 3.0 6.0 0.01 1.72 0.01 1 1013.2
20260510083533 67 52 2.0 6.0 0.01 1.72 0.01 1 1013.1
20260510083030 67 66 2.0 6.0 0.01 1.72 0.01 1 1013.1
20260510082529 66 55 3.0 7.0 0.01 1.72 0.01 1 1013.1
20260510082028 66 59 2.0 5.0 0.01 1.72 0.01 1 1013.1
20260510081526 66 70 0.0 4.0 0.01 1.72 0.01 1 1013.0
20260510081025 66 55 0.0 0.0 0.01 1.72 0.01 1 1013.0
20260510080525 66 55 0.0 0.0 0.00 1.71 0.00 1 1012.8
20260510080027 66 55 0.0 0.0 0.00 1.71 0.00 1 1012.9
20260510075521 66 55 0.0 0.0 0.00 1.71 0.00 1 1012.8
20260510075020 66 55 0.0 0.0 0.00 1.71 0.00 1 1012.9
20260510074518 66 53 0.0 0.0 0.00 1.71 0.00 1 1012.9
20260510074020 66 54 0.0 0.0 0.00 1.71 0.00 1 1012.8
20260510073516 66 54 0.0 0.0 0.00 1.71 0.00 1 1012.7
20260510073013 66 55 0.0 0.0 0.00 1.71 0.00 1 1012.6
20260510072512 66 55 0.0 0.0 0.00 1.71 0.00 1 1012.5
20260510072016 66 55 0.0 0.0 0.00 1.71 0.00 1 1012.6
20260510071508 66 51 0.0 0.0 0.00 1.71 0.00 1 1012.6
20260510071007 66 53 0.0 0.0 0.00 1.71 0.00 1 1012.6
20260510070506 66 53 0.0 0.0 0.00 1.71 0.00 1 1012.6
20260510070008 66 53 0.0 0.0 0.00 1.71 0.00 1 1012.7
20260510065504 66 53 0.0 0.0 0.00 1.71 0.00 1 1012.7
20260510065002 66 53 0.0 0.0 0.00 1.71 0.00 1 1012.7
20260510064602 66 53 0.0 0.0 0.00 1.71 0.00 1 1012.7
20260510064059 66 53 0.0 0.0 0.00 1.71 0.00 1 1012.7
20260510063557 66 53 0.0 0.0 0.00 1.71 0.00 1 1012.6
20260510063056 66 53 0.0 3.0 0.00 1.71 0.00 1 1012.6
20260510062555 66 53 1.0 3.0 0.00 1.71 0.00 1 1012.7
20260510062053 66 53 1.0 4.0 0.00 1.71 0.00 1 1012.7
20260510061551 66 53 1.0 4.0 0.00 1.71 0.00 1 1012.8
20260510061051 66 55 2.0 4.0 0.00 1.71 0.00 1 1012.8
20260510060550 66 87 0.0 1.0 0.00 1.71 0.00 1 1012.7
20260510060048 66 155 0.0 0.0 0.00 1.71 0.00 1 1012.6
20260510055545 67 155 0.0 0.0 0.00 1.71 0.00 1 1012.6
20260510055044 67 155 0.0 0.0 0.00 1.71 0.00 1 1012.6
20260510054543 67 155 0.0 0.0 0.00 1.71 0.00 1 1012.6
20260510054042 67 155 0.0 0.0 0.00 1.71 0.00 1 1012.6
20260510053539 67 155 0.0 0.0 0.00 1.71 0.00 1 1012.6
20260510053038 67 155 0.0 0.0 0.00 1.71 0.00 1 1012.6
20260510052537 67 155 0.0 0.0 0.00 1.71 0.00 1 1012.6
20260510052035 67 155 0.0 0.0 0.00 1.71 0.00 1 1012.6
20260510051534 67 155 0.0 0.0 0.00 1.71 0.00 1 1012.7
20260510051035 67 155 0.0 2.0 0.00 1.71 0.00 1 1012.8
20260510050531 67 155 0.0 5.0 0.00 1.71 0.00 1 1012.7
20260510050030 67 165 1.0 5.0 0.00 1.71 0.00 1 1012.5
20260510045529 67 129 1.0 4.0 0.00 1.71 1.71 1 1012.7
20260510045030 67 141 0.0 3.0 0.00 1.71 1.71 1 1012.8
20260510044529 67 135 0.0 0.0 0.00 1.71 1.71 1 1013.1
20260510044029 67 135 0.0 4.0 0.00 1.71 1.71 1 1013.1
20260510043529 67 136 0.0 5.0 0.00 1.71 1.71 1 1013.0
20260510043029 67 157 1.0 5.0 0.00 1.71 1.71 1 1013.1
20260510042528 67 145 2.0 6.0 0.00 1.71 1.71 1 1012.9
20260510042028 67 144 1.0 6.0 0.00 1.71 1.71 1 1012.9
20260510041528 67 136 1.0 5.0 0.00 1.71 1.71 1 1012.9
20260510041028 67 159 1.0 3.0 0.00 1.71 1.71 1 1012.9
20260510040528 67 158 1.0 5.0 0.00 1.71 1.71 1 1013.0
20260510040028 67 145 1.0 4.0 0.00 1.71 1.71 1 1013.2
20260510035527 67 184 1.0 4.0 0.00 1.71 1.71 1 1013.4
20260510035027 67 202 1.0 5.0 0.00 1.71 1.71 1 1013.6
20260510034528 67 203 2.0 5.0 0.00 1.71 1.71 1 1013.7
20260510034027 67 215 2.0 5.0 0.00 1.71 1.71 1 1013.7
20260510033526 67 210 0.0 5.0 0.00 1.71 1.71 1 1013.7
20260510033026 67 210 2.0 5.0 0.00 1.71 1.71 1 1013.8
20260510032528 67 202 1.0 4.0 0.00 1.71 1.71 1 1013.8
20260510032026 67 200 0.0 0.0 0.00 1.71 1.71 1 1013.7
20260510031526 67 200 0.0 0.0 0.00 1.71 1.71 1 1013.7
20260510031026 67 200 0.0 0.0 0.00 1.71 1.71 1 1013.6
20260510030526 67 200 0.0 0.0 0.00 1.71 1.71 1 1013.6
20260510030027 67 200 0.0 0.0 0.00 1.71 1.71 1 1013.6
20260510025525 67 200 0.0 0.0 0.00 1.71 1.71 1 1013.6
20260510025025 67 200 0.0 0.0 0.00 1.71 1.71 1 1013.7
20260510024527 67 200 0.0 1.0 0.00 1.71 1.71 1 1013.7
20260510024024 67 200 0.0 2.0 0.00 1.71 1.71 1 1013.5
20260510023524 67 202 0.0 3.0 0.00 1.71 1.71 1 1013.5
20260510023027 67 201 0.0 4.0 0.00 1.71 1.71 1 1013.3
20260510022528 67 203 2.0 4.0 0.00 1.71 1.71 1 1013.2
20260510022024 67 185 1.0 3.0 0.00 1.71 1.71 1 1013.2
20260510021528 67 184 0.0 3.0 0.00 1.71 1.71 1 1013.1
20260510021023 68 192 0.0 3.0 0.00 1.71 1.71 1 1013.1
20260510020523 68 212 0.0 7.0 0.00 1.71 1.71 1 1012.9
20260510020023 68 198 2.0 7.0 0.00 1.71 1.71 1 1012.8
20260510015524 68 155 1.0 7.0 0.00 1.71 1.71 1 1012.9
20260510015022 68 174 2.0 7.0 0.00 1.71 1.71 1 1012.9
20260510014523 68 146 2.0 8.0 0.00 1.71 1.71 1 1012.8
20260510014023 68 154 2.0 8.0 0.00 1.71 1.71 1 1012.8
20260510013521 68 117 0.0 7.0 0.00 1.71 1.71 1 1012.9
20260510013022 68 171 2.0 8.0 0.00 1.71 1.71 1 1012.9
20260510012522 68 144 1.0 7.0 0.01 1.71 1.71 1 1012.7
20260510012021 68 128 3.0 9.0 0.01 1.71 1.71 1 1012.5
20260510011522 68 116 3.0 9.0 0.01 1.71 1.71 1 1012.6
20260510011021 68 142 2.0 6.0 0.01 1.71 1.71 1 1012.6
20260510010522 68 176 1.0 4.0 0.01 1.71 1.71 1 1012.6
20260510010021 68 111 1.0 6.0 0.01 1.71 1.71 1 1012.7
20260510005522 68 129 2.0 7.0 0.01 1.71 1.71 1 1012.7
20260510005025 68 135 1.0 7.0 0.01 1.71 1.71 1 1012.9
20260510004522 68 169 2.0 5.0 0.01 1.71 1.71 1 1012.9
20260510004021 68 184 1.0 8.0 0.01 1.71 1.71 1 1013.0
20260510003520 68 141 2.0 8.0 0.01 1.71 1.71 1 1012.7
20260510003020 68 160 0.0 3.0 0.02 1.71 1.71 1 1012.8
20260510002519 68 143 0.0 4.0 0.02 1.70 1.70 1 1012.7
20260510002019 68 136 2.0 4.0 0.02 1.70 1.70 1 1012.6
20260510001519 68 155 1.0 5.0 0.02 1.70 1.70 1 1012.7
20260510001019 68 144 2.0 5.0 0.02 1.70 1.70 1 1012.6
20260510000518 68 144 2.0 5.0 0.02 1.70 1.70 1 1012.4
20260510000019 68 149 1.0 5.0 0.03 1.70 1.70 1 1012.5
20260509235520 68 132 2.0 5.0 0.03 1.73 1.70 1 1012.6
20260509235020 68 166 1.0 3.0 0.03 1.73 1.70 1 1012.8
20260509234534 68 166 0.0 3.0 0.04 1.73 1.70 1 1012.7
20260509234017 68 176 0.0 0.0 0.04 1.73 1.70 1 1012.7
20260509233515 68 177 0.0 0.0 0.04 1.73 1.70 1 1012.8
20260509233014 68 177 0.0 3.0 0.03 1.72 1.69 1 1013.0
20260509232512 68 177 1.0 3.0 0.02 1.71 1.68 1 1013.1
20260509232017 68 161 0.0 0.0 0.02 1.71 1.68 1 1013.1
20260509231515 68 155 0.0 1.0 0.02 1.71 1.68 1 1012.7
20260509231008 68 155 0.0 3.0 0.03 1.71 1.68 1 1012.8
20260509230507 68 125 0.0 5.0 0.03 1.71 1.68 1 1012.6
20260509230006 68 213 2.0 5.0 0.02 1.70 1.67 1 1012.7
20260509225504 68 156 0.0 5.0 0.02 1.89 1.67 1 1012.6
20260509225002 68 166 1.0 7.0 0.02 1.89 1.67 1 1012.6
20260509224503 68 200 1.0 7.0 0.01 1.88 1.66 1 1012.6
20260509224102 68 186 2.0 7.0 0.01 1.88 1.66 1 1012.6
20260509223558 68 158 1.0 7.0 0.01 1.88 1.66 1 1012.5
20260509223103 68 199 3.0 7.0 0.01 1.88 1.66 1 1012.4
20260509222558 68 188 1.0 5.0 0.01 1.88 1.66 1 1012.1
20260509222054 68 229 0.0 5.0 0.01 1.88 1.66 1 1012.0
20260509221552 68 157 0.0 0.0 0.01 1.88 1.66 1 1012.0
20260509221051 68 155 0.0 0.0 0.00 1.87 1.65 1 1011.7
20260509220549 68 154 0.0 0.0 0.00 1.87 1.65 1 1011.6
20260509220048 68 155 0.0 2.0 0.00 1.87 1.65 1 1011.7
20260509215546 68 195 0.0 5.0 0.00 2.62 1.65 1 1011.9
20260509215046 68 195 1.0 5.0 0.00 2.62 1.65 1 1011.9
20260509214544 68 117 2.0 9.0 0.00 2.62 1.65 1 1011.7
20260509214044 68 262 1.0 9.0 0.00 2.62 1.65 1 1012.0
20260509213540 68 200 2.0 10.0 0.01 2.62 1.65 1 1011.9
20260509213041 68 169 3.0 10.0 0.01 2.62 1.65 1 1011.8
20260509212538 68 223 4.0 10.0 0.02 2.62 1.65 1 1011.8
20260509212037 68 170 3.0 11.0 0.03 2.62 1.65 1 1011.7
20260509211538 68 157 2.0 8.0 0.04 2.62 1.65 1 1011.8
20260509211037 68 117 2.0 10.0 0.04 2.62 1.65 1 1011.8
20260509210537 68 150 4.0 7.0 0.05 2.62 1.65 1 1011.8
20260509210037 68 144 1.0 5.0 0.06 2.62 1.65 1 1011.7
20260509205539 68 134 2.0 8.0 0.07 3.14 1.65 1 1011.5
20260509205039 68 123 4.0 8.0 0.08 3.14 1.65 1 1011.6
20260509204536 68 130 2.0 7.0 0.09 3.14 1.65 1 1011.6
20260509204036 68 123 2.0 4.0 0.10 3.14 1.65 1 1011.7
20260509203535 68 87 1.0 4.0 0.10 3.13 1.64 1 1011.8
20260509203050 68 140 1.0 4.0 0.10 3.13 1.64 1 1011.8
20260509202535 67 147 1.0 4.0 0.10 3.12 1.63 1 1012.1
20260509202036 67 148 0.0 3.0 0.09 3.11 1.62 1 1012.4
20260509201535 67 147 0.0 3.0 0.08 3.10 1.61 1 1012.6
20260509201036 67 236 0.0 4.0 0.08 3.10 1.61 1 1012.6
20260509200535 67 166 1.0 4.0 0.07 3.09 1.60 1 1012.7
20260509200036 67 154 0.0 6.0 0.06 3.08 1.59 1 1012.7
20260509195535 67 144 1.0 5.0 0.06 3.07 1.58 1 1012.8
20260509195037 67 169 2.0 5.0 0.05 3.06 1.57 1 1012.8
20260509194535 67 129 0.0 3.0 0.04 3.05 1.56 1 1012.7
20260509194034 67 119 0.0 3.0 0.04 3.04 1.55 1 1012.9
20260509193534 67 128 0.0 3.0 0.04 3.03 1.54 1 1013.1
20260509193033 67 127 0.0 1.0 0.05 3.03 1.54 1 1013.2
20260509192533 67 127 0.0 0.0 0.05 3.02 1.53 1 1013.3
20260509192033 67 127 0.0 0.0 0.07 3.02 1.53 1 1013.3
20260509191533 67 127 0.0 3.0 0.08 3.02 1.53 1 1013.3
20260509191034 67 127 1.0 5.0 0.08 3.02 1.53 1 1013.2
20260509190533 67 128 1.0 9.0 0.09 3.02 1.53 1 1013.2
20260509190033 67 121 4.0 9.0 0.10 3.02 1.53 1 1013.0
20260509185533 67 128 3.0 7.0 0.10 3.01 1.52 1 1013.1
20260509185033 67 115 2.0 10.0 0.11 3.01 1.52 1 1013.2
20260509184543 67 123 4.0 10.0 0.14 3.01 1.52 1 1013.1
20260509184033 67 134 3.0 7.0 0.15 3.00 1.51 1 1012.9
20260509183532 67 159 2.0 9.0 0.20 2.99 1.50 1 1013.0
20260509183032 67 157 1.0 9.0 0.26 2.98 1.49 1 1013.1
20260509182532 67 123 2.0 7.0 0.31 2.97 1.48 1 1013.2
20260509182031 67 142 3.0 7.0 0.32 2.95 1.46 1 1013.2
20260509181531 67 117 2.0 8.0 0.33 2.94 1.45 1 1012.8
20260509181031 67 94 1.0 6.0 0.36 2.94 1.45 1 1013.0
20260509180531 67 117 2.0 8.0 0.40 2.93 1.44 1 1013.1
20260509180053 67 139 3.0 9.0 0.42 2.92 1.43 1 1013.5
20260509175530 67 165 3.0 9.0 0.42 2.91 1.42 1 1013.1
20260509175031 67 154 3.0 9.0 0.42 2.90 1.41 1 1013.2
20260509174531 67 121 5.0 8.0 0.39 2.87 1.38 1 1013.3
20260509174029 67 136 2.0 8.0 0.38 2.85 1.36 1 1013.3
20260509173528 67 169 0.0 4.0 0.32 2.79 1.30 1 1013.6
20260509173035 67 53 0.0 4.0 0.25 2.71 1.22 1 1014.0
20260509172532 67 47 0.0 9.0 0.20 2.66 1.17 1 1013.9
20260509172028 67 76 5.0 9.0 0.19 2.63 1.13 1 1013.4
20260509171528 67 84 3.0 9.0 0.30 2.61 1.12 1 1013.8
20260509171027 67 88 2.0 4.0 0.38 2.57 1.08 1 1014.3
20260509170528 67 132 0.0 4.0 0.39 2.52 1.04 1 1014.4
20260509170045 67 123 0.0 9.0 0.40 2.50 1.01 1 1014.3
20260509165528 67 94 4.0 9.0 0.44 2.49 1.00 1 1013.9
20260509165026 67 88 5.0 10.0 0.44 2.48 0.99 1 1013.9
20260509164525 67 48 5.0 12.0 0.44 2.48 0.99 1 1013.8
20260509164024 67 87 5.0 13.0 0.43 2.47 0.98 1 1013.7
20260509163525 67 98 7.0 15.0 0.43 2.46 0.97 1 1013.6
20260509163025 67 88 8.0 15.0 0.44 2.46 0.97 1 1013.8
20260509162520 67 109 7.0 14.0 0.44 2.46 0.97 1 1013.7
20260509162017 66 127 6.0 14.0 0.43 2.44 0.95 1 1014.0
20260509161516 67 69 6.0 11.0 0.28 2.29 0.80 1 1014.2
20260509161015 66 58 4.0 11.0 0.17 2.18 0.69 1 1014.6
20260509160514 66 80 6.0 16.0 0.12 2.13 0.64 1 1014.4
20260509160012 66 38 6.0 16.0 0.08 2.09 0.60 1 1014.4
20260509155510 66 67 6.0 11.0 0.04 2.04 0.55 1 1014.2
20260509155008 66 101 5.0 14.0 0.04 2.04 0.55 1 1014.3
20260509154510 66 69 7.0 15.0 0.04 2.04 0.55 1 1014.1
20260509154006 66 77 8.0 15.0 0.04 2.04 0.55 1 1014.0
20260509153503 66 74 9.0 18.0 0.03 2.02 0.54 1 1013.8